Terminal Aerodrome Forecast
Issued by NWS Mt. Holly, NJ

Home | Current Version | Previous Version | Text Only | Print | Product List | Glossary On
Versions: 1 2 3 4 5 6 7 8 9 10 11 12 13 14 15 16 17 18 19 20 21 22 23 24 25 26 27 28 29 30 31 32 33 34 35 36 37 38 39 40 41 42 43 44 45 46 47 48 49 50
000
FTAK31 PANC 200004 AAB
TAFABE
TAF AMD
PABE 200004Z 2000/2024 32025G35KT P6SM VCSH FEW025 BKN050 OVC090
      TEMPO 2000/2002 3SM -SHSN BR FEW015 BKN025 OVC050
     FM200200 33015G25KT 6SM BR VCSH SCT015 BKN025 OVC050
     FM200800 35015G25KT P6SM SCT015 BKN030
     FM201500 01012KT P6SM SCT030 BKN060=

USA.gov is the U.S. government's official web portal to all federal, state and local government web resources and services.